User: anonymous   Login
Location: Unspecified
(0.0000°N, 0.0000°E)
Time: 00:38:13
(UTC+00:00)
Language:

ARGOS - Orbit

View from above orbital plane
View from above orbital plane
View from above satellite
View from above satellite

Ground track
Ground track

The orbit data is extracted from the following two-line orbital elements,

1 25634U 99008A   17206.61731325 -.00000012 +00000-0 +14614-4 0  9994
2 25634 098.6163 268.3743 0011370 096.8697 263.3773 14.19314926953441
Epoch (UTC): 25 July 2017 14:48:55
Eccentricity: 0.0011370
inclination: 98.6163°
perigee height: 819 km
apogee height: 836 km
right ascension of ascending node: 268.3743°
argument of perigee: 96.8697°
revolutions per day: 14.19314926
mean anomaly at epoch: 263.3773°
orbit number at epoch: 95344

The dashed part of the orbit path shows where the satellite is in the earth's shadow,  

DLR